Regional Weather Roundup
Issued by NWS

Home | Current Version | Previous Version | Text Only | Print | Product List | Glossary Off
Versions: 1 2 3 4 5 6 7 8 9 10 11 12 13 14 15 16 17 18 19 20 21 22 23 24 25 26 27 28 29 30 31 32 33 34 35 36 37 38 39 40 41 42 43 44 45 46 47 48 49 50

000
ASUS43 KBIS 080102
RWRND

NORTH DAKOTA REGIONAL WEATHER ROUNDUP
NATIONAL WEATHER SERVICE BISMARCK ND
800 PM CDT TUE JUL 07 2015

NOTE: "FAIR" INDICATES FEW OR NO CLOUDS BELOW 12,000 FEET WITH NO
SIGNIFICANT WEATHER AND/OR OBSTRUCTIONS TO VISIBILITY.


NDZ001>003-009>011-017-080200-
NORTHWEST NORTH DAKOTA

CITY           SKY/WX    TMP DP  RH WIND       PRES   REMARKS
WILLISTON      MOSUNNY   78  48  34 CALM      29.94F
MINOT          MOSUNNY   74  56  53 S9        29.94R
$$

NDZ018>021-031>035-040>046-080200-
SOUTHWEST NORTH DAKOTA

CITY           SKY/WX    TMP DP  RH WIND       PRES   REMARKS
BISMARCK       CLOUDY    71  56  58 S9        29.99S
DICKINSON      PTSUNNY   65  59  81 NE8       29.97R
GARRISON         N/A     71  58  63 S15       29.97S
HETTINGER ARPT PTSUNNY   64  58  80 SE16      29.97F
$$

NDZ004>008-012>016-024-026-027-054-080200-
NORTHEAST NORTH DAKOTA

CITY           SKY/WX    TMP DP  RH WIND       PRES   REMARKS
GRAND FORKS    MOSUNNY   70  47  43 S8        30.01F
GRND FRKS AFB  SUNNY     70  49  46 SW8       30.02F
DEVILS LAKE    SUNNY     72  50  46 S10       29.97F
$$

NDZ022-023-025-028>030-036>039-047>053-080200-
SOUTHEAST NORTH DAKOTA

CITY           SKY/WX    TMP DP  RH WIND       PRES   REMARKS
FARGO          MOSUNNY   69  45  41 S10       30.05F
JAMESTOWN      SUNNY     69  48  47 S10       30.02F
$$




USA.gov is the U.S. government's official web portal to all federal, state and local government web resources and services.